FLOCK 4S-7 (47527 NORAD) Tracking and Keplerian Element Data

This shows tracking and keplerian element data for the satellite.

Feedback or suggestion? Click here.




ElementValue
Catalog47527
NameFLOCK 4S-7
Epoch Orbit1294
Epoch Day101.90913987
Epoch Year2021
RAAN164.168
Inclination97.4929
Eccentricity0.0008275
Argument of Perigee355.3005
Mean Anonmoly4.8146
Mean Motion15.11937836
Decay Rate2.133E-05
L11 47527U 21006DT 21101.90913987 .00002133 00000-0 12815-3 0 9994
L22 47527 97.4929 164.1680 0008275 355.3005 4.8146 15.11937836 12949

Live tracking and technical data element details for FLOCK 4S-7 (NORAD 47527). FLOCK 4S-7 can be tracked NOW for your location showing map with azimuth and elevation plus other details from your city location.

Track the satellite on the map from your city or location and see movement details for azimuth, elevation, latitude, longitude, range, height, and movement on the map or in text.







IsCatalogInMostPopularTable: catalog: 47527, numindb: 18
Update: records affected: 1



GetName: 47527 FLOCK 4S-7

Hit Count: updated at: Tue, 13 Apr 2021 04:55:02 GMT